This is the latest recevied weather packets stored in our database for station/object W8LMG. If no packets are shown the sender has not sent any weather packets the latest 10 day(s).
| Time | Temp. | Humidity | Pressure | Rain* | Wind** | Luminosity | Snow |
|---|---|---|---|---|---|---|---|
| 1777655306 | 15.56° C | 38% | 1012.9 hPa | 0 mm | - | 298 W/m² | - |
| 1777655003 | 15.56° C | 37% | 1013.1 hPa | 0 mm | - | 374 W/m² | - |
| 1777654700 | 15.56° C | 43% | 1013.2 hPa | 0 mm | - | 410 W/m² | - |
| 1777654398 | 15.56° C | 44% | 1013.1 hPa | 0 mm | - | 411 W/m² | - |
| 1777654096 | 15° C | 39% | 1013.2 hPa | 0 mm | - | 472 W/m² | - |
| 1777653793 | 15.56° C | 38% | 1013 hPa | 0 mm | - | 203 W/m² | - |
| 1777653489 | 15° C | 40% | 1013.3 hPa | 0 mm | - | 126 W/m² | - |
| 1777653186 | 15° C | 40% | 1013.4 hPa | 0 mm | - | 382 W/m² | - |
| 1777652882 | 14.44° C | 39% | 1013.3 hPa | 0 mm | - | 643 W/m² | - |
| 1777652579 | 14.44° C | 34% | 1013.5 hPa | 0 mm | - | 180 W/m² | - |
| 1777652275 | 14.44° C | 38% | 1013.4 hPa | 0 mm | - | 136 W/m² | - |
| 1777651973 | 14.44° C | 36% | 1013.5 hPa | 0 mm | - | 50 W/m² | - |
| 1777651669 | 13.33° C | 39% | 1013.5 hPa | 0 mm | - | 274 W/m² | - |
| 1777651366 | 14.44° C | 37% | 1013.8 hPa | 0 mm | - | 203 W/m² | - |
| 1777651064 | 13.89° C | 38% | 1014.1 hPa | 0 mm | - | 555 W/m² | - |
| 1777650761 | 13.89° C | 40% | 1013.9 hPa | 0 mm | - | 423 W/m² | - |
| 1777650457 | 13.33° C | 45% | 1014 hPa | 0 mm | - | 479 W/m² | - |
| 1777650154 | 13.89° C | 43% | 1014.3 hPa | 0 mm | - | 230 W/m² | - |
| 1777649852 | 13.89° C | 40% | 1014.2 hPa | 0 mm | - | 442 W/m² | - |
| 1777649549 | 13.33° C | 42% | 1014.1 hPa | 0 mm | - | 668 W/m² | - |
| 1777649246 | 12.78° C | 47% | 1014.3 hPa | 0 mm | - | 565 W/m² | - |
| 1777648942 | 11.67° C | 50% | 1014.5 hPa | 0 mm | - | 454 W/m² | - |
| 1777648640 | 12.78° C | 49% | 1014.6 hPa | 0 mm | - | 310 W/m² | - |
| 1777648336 | 12.22° C | 55% | 1014.6 hPa | 0 mm | - | 356 W/m² | - |
| 1777648033 | 11.67° C | 55% | 1014.6 hPa | 0 mm | - | 231 W/m² | - |
* Rain latest hour (hover to see other rain measurements)
** Current wind speed in m/s (hover to see current wind gust speed)